Fort Lewis, WA
on Tuesday, January 8, 2013

Tuesday
Previous Day Next Day
Daily Summary
 ActualAverage (KOLM)Record (KOLM)
Temperature
Mean Temperature °F / °C 39°F / 4°C  
Max Temperature 53°F / 12°C 45°F / 7°C 55°F / 12°C (1953)
Min Temperature 40°F / 4°C 34°F / 1°C 9°F / -12°C (1974)
Degree Days
Heating Degree Days 18 26  
Month to date heating degree days 208  
Since 1 July heating degree days 2478  
Cooling Degree Days 0 0  
Month to date cooling degree days 0  
Year to date cooling degree days 0  
Moisture
Dew Point 45°F / 7°C   
Average Humidity 94    
Maximum Humidity 100    
Minimum Humidity 74    
Precipitation
Precipitation 0.23 in / 5.84 cm 0.26 in / 6.60 cm 1.20 in / 3.05 cm (1990)
Month to date precipitation 2.04  
Year to date precipitation 2.04  
Wind
Wind Speed 8 mph / 13 km/h   
Max Wind Speed 26 mph / 42 km/h   
Max Gust Speed 39 mph / 63 km/h   
Visibility 8 miles / 13 kilometers   
Events Rain   

Key: T is trace of precipitation, MM is missing value
Source: NWS Daily Summary
Time(PST)TemperatureDew PointHumidity Pressure Visibility Wind DirectionWind SpeedGust SpeedPrecipitationEvents Conditions
12:58 AM 43.5°F / 6.4°C 41.5°F / 5.3°C 93% 30.19 in / 1022.2 hPa 10.0 miles / 16.1 kilometers SSE 5.8 mph / 9.3 km/h - N/A   Overcast
1:58 AM 43.5°F / 6.4°C 41.4°F / 5.2°C 92% 30.18 in / 1021.8 hPa 10.0 miles / 16.1 kilometers SSE 4.6 mph / 7.4 km/h - N/A   Clear
2:58 AM 43.0°F / 6.1°C 41.2°F / 5.1°C 93% 30.17 in / 1021.5 hPa 10.0 miles / 16.1 kilometers SE 3.5 mph / 5.6 km/h - N/A   Clear
3:58 AM 41.0°F / 5.0°C 40.3°F / 4.6°C 97% 30.16 in / 1021.2 hPa 10.0 miles / 16.1 kilometers SE 2.3 mph / 3.7 km/h - N/A   Clear
4:48 AM 41.0°F / 5.0°C 41.0°F / 5.0°C 100% 30.12 in / 1019.9 hPa 10.0 miles / 16.1 kilometers ESE 1.2 mph / 1.9 km/h - N/A   Mostly Cloudy
4:53 AM 41.0°F / 5.0°C 41.0°F / 5.0°C 100% 30.11 in / 1019.5 hPa 9.0 miles / 14.5 kilometers NE 1.2 mph / 1.9 km/h - N/A   Mostly Cloudy
4:58 AM 40.8°F / 4.9°C 40.6°F / 4.8°C 99% 30.13 in / 1020.2 hPa 9.0 miles / 14.5 kilometers NE 3.5 mph / 5.6 km/h - N/A   Mostly Cloudy
4:59 AM 41.0°F / 5.0°C 41.0°F / 5.0°C 100% 30.11 in / 1019.5 hPa 10.0 miles / 16.1 kilometers NE 2.3 mph / 3.7 km/h - N/A   Light Drizzle
5:09 AM 42.8°F / 6.0°C 41.0°F / 5.0°C 93% 30.11 in / 1019.5 hPa 10.0 miles / 16.1 kilometers ENE 2.3 mph / 3.7 km/h - N/A   Light Drizzle
5:10 AM 42.8°F / 6.0°C 41.0°F / 5.0°C 93% 30.11 in / 1019.5 hPa 10.0 miles / 16.1 kilometers ENE 2.3 mph / 3.7 km/h - N/A   Overcast
5:19 AM 41.0°F / 5.0°C 41.0°F / 5.0°C 100% 30.11 in / 1019.5 hPa 10.0 miles / 16.1 kilometers Calm Calm - N/A   Light Drizzle
5:34 AM 42.8°F / 6.0°C 41.0°F / 5.0°C 93% 30.09 in / 1018.8 hPa 10.0 miles / 16.1 kilometers NE 5.8 mph / 9.3 km/h - N/A   Light Drizzle
5:44 AM 42.8°F / 6.0°C 42.8°F / 6.0°C 100% 30.09 in / 1018.8 hPa 10.0 miles / 16.1 kilometers NE 5.8 mph / 9.3 km/h - N/A Rain Light Rain
5:54 AM 42.8°F / 6.0°C 42.8°F / 6.0°C 100% 30.08 in / 1018.5 hPa 9.0 miles / 14.5 kilometers East 2.3 mph / 3.7 km/h - N/A Rain Light Rain
5:58 AM 42.4°F / 5.8°C 42.1°F / 5.6°C 99% 30.10 in / 1019.1 hPa 9.0 miles / 14.5 kilometers East 2.3 mph / 3.7 km/h - 0.03 in / 0.8 cm Rain Light Rain
6:03 AM 42.8°F / 6.0°C 42.8°F / 6.0°C 100% 30.08 in / 1018.5 hPa 10.0 miles / 16.1 kilometers ESE 2.3 mph / 3.7 km/h - N/A Rain Light Rain
6:08 AM 42.8°F / 6.0°C 42.8°F / 6.0°C 100% 30.07 in / 1018.2 hPa 10.0 miles / 16.1 kilometers ESE 2.3 mph / 3.7 km/h - N/A   Light Drizzle
6:26 AM 42.8°F / 6.0°C 41.0°F / 5.0°C 93% 30.06 in / 1017.8 hPa 10.0 miles / 16.1 kilometers East 2.3 mph / 3.7 km/h - N/A   Overcast
6:29 AM 42.8°F / 6.0°C 41.0°F / 5.0°C 93% 30.06 in / 1017.8 hPa 10.0 miles / 16.1 kilometers ESE 2.3 mph / 3.7 km/h - N/A   Light Drizzle
6:58 AM 41.9°F / 5.5°C 41.2°F / 5.1°C 97% 30.07 in / 1018.1 hPa 8.0 miles / 12.9 kilometers East 2.3 mph / 3.7 km/h - 0.01 in / 0.3 cm   Light Drizzle
7:03 AM 42.8°F / 6.0°C 41.0°F / 5.0°C 93% 30.05 in / 1017.5 hPa 7.0 miles / 11.3 kilometers ENE 3.5 mph / 5.6 km/h - N/A   Light Drizzle
7:17 AM 41.0°F / 5.0°C 41.0°F / 5.0°C 100% 30.04 in / 1017.2 hPa 6.0 miles / 9.7 kilometers NE 3.5 mph / 5.6 km/h - N/A   Overcast
7:19 AM 41.0°F / 5.0°C 41.0°F / 5.0°C 100% 30.04 in / 1017.2 hPa 5.0 miles / 8.0 kilometers NE 4.6 mph / 7.4 km/h - N/A   Light Drizzle
7:29 AM 41.0°F / 5.0°C 41.0°F / 5.0°C 100% 30.03 in / 1016.8 hPa 3.0 miles / 4.8 kilometers ENE 4.6 mph / 7.4 km/h - N/A Rain Light Rain
7:34 AM 41.0°F / 5.0°C 41.0°F / 5.0°C 100% 30.03 in / 1016.8 hPa 3.0 miles / 4.8 kilometers ENE 4.6 mph / 7.4 km/h - N/A Rain Light Rain
7:49 AM 41.0°F / 5.0°C 41.0°F / 5.0°C 100% 30.02 in / 1016.5 hPa 7.0 miles / 11.3 kilometers ENE 3.5 mph / 5.6 km/h - N/A Rain Light Rain
7:54 AM 41.0°F / 5.0°C 41.0°F / 5.0°C 100% 30.02 in / 1016.5 hPa 5.0 miles / 8.0 kilometers NE 2.3 mph / 3.7 km/h - N/A Rain Light Rain
7:58 AM 41.4°F / 5.2°C 41.2°F / 5.1°C 99% 30.04 in / 1017.1 hPa 4.0 miles / 6.4 kilometers NE 1.2 mph / 1.9 km/h - 0.05 in / 1.3 cm Rain Light Rain
8:08 AM 41.0°F / 5.0°C 41.0°F / 5.0°C 100% 30.01 in / 1016.1 hPa 4.0 miles / 6.4 kilometers NNE 4.6 mph / 7.4 km/h - N/A Rain Light Rain
8:30 AM 41.0°F / 5.0°C 41.0°F / 5.0°C 100% 30.01 in / 1016.1 hPa 3.0 miles / 4.8 kilometers NE 2.3 mph / 3.7 km/h - N/A Rain Light Rain
8:36 AM 41.0°F / 5.0°C 41.0°F / 5.0°C 100% 30.02 in / 1016.5 hPa 2.5 miles / 4.0 kilometers North 2.3 mph / 3.7 km/h - N/A Rain Light Rain
8:47 AM 41.0°F / 5.0°C 41.0°F / 5.0°C 100% 30.02 in / 1016.5 hPa 2.5 miles / 4.0 kilometers Variable 2.3 mph / 3.7 km/h - N/A   Overcast
8:59 AM 41.0°F / 5.0°C 41.0°F / 5.0°C 100% 30.01 in / 1016.1 hPa 2.5 miles / 4.0 kilometers Variable 2.3 mph / 3.7 km/h - N/A Rain Light Rain
9:45 AM 41.0°F / 5.0°C 41.0°F / 5.0°C 100% 0.30 in / 10.2 hPa 2.0 miles / 3.2 kilometers Variable 1.2 mph / 1.9 km/h - N/A Rain Light Rain
9:59 AM 41.7°F / 5.4°C 41.5°F / 5.3°C 99% 30.01 in / 1016.2 hPa 3.0 miles / 4.8 kilometers Variable 1.2 mph / 1.9 km/h - 0.04 in / 1.0 cm Rain Light Rain
10:15 AM 42.8°F / 6.0°C 42.8°F / 6.0°C 100% 29.98 in / 1015.1 hPa 4.0 miles / 6.4 kilometers SE 5.8 mph / 9.3 km/h - N/A Rain Light Rain
10:35 AM - - N/A% - / - - SE 3.5 mph / 5.6 km/h - N/A   Unknown
10:36 AM 42.8°F / 6.0°C 42.8°F / 6.0°C 100% 29.97 in / 1014.8 hPa 5.0 miles / 8.0 kilometers SSE 2.3 mph / 3.7 km/h - N/A   Overcast
10:41 AM 42.8°F / 6.0°C 42.8°F / 6.0°C 100% 29.97 in / 1014.8 hPa 5.0 miles / 8.0 kilometers SE 5.8 mph / 9.3 km/h - N/A Rain Light Rain
10:51 AM 42.8°F / 6.0°C 42.8°F / 6.0°C 100% 29.97 in / 1014.8 hPa 6.0 miles / 9.7 kilometers SSE 3.5 mph / 5.6 km/h - N/A   Light Drizzle
10:55 AM 42.8°F / 6.0°C 42.8°F / 6.0°C 100% 29.96 in / 1014.4 hPa 6.0 miles / 9.7 kilometers SSE 4.6 mph / 7.4 km/h - N/A   Light Drizzle
10:58 AM 43.2°F / 6.2°C 43.0°F / 6.1°C 99% 29.98 in / 1015.1 hPa 5.0 miles / 8.0 kilometers SSE 4.6 mph / 7.4 km/h - 0.03 in / 0.8 cm   Light Drizzle
11:02 AM 42.8°F / 6.0°C 42.8°F / 6.0°C 100% 29.96 in / 1014.4 hPa 2.0 miles / 3.2 kilometers South 4.6 mph / 7.4 km/h - N/A   Light Drizzle
11:17 AM 42.8°F / 6.0°C 42.8°F / 6.0°C 100% 29.94 in / 1013.8 hPa 4.0 miles / 6.4 kilometers SSE 3.5 mph / 5.6 km/h - N/A   Overcast
11:25 AM 44.6°F / 7.0°C 42.8°F / 6.0°C 93% 29.94 in / 1013.8 hPa 4.0 miles / 6.4 kilometers SSE 4.6 mph / 7.4 km/h - N/A Rain Light Rain
11:30 AM 44.6°F / 7.0°C 42.8°F / 6.0°C 93% 29.94 in / 1013.8 hPa 7.0 miles / 11.3 kilometers SSE 5.8 mph / 9.3 km/h - N/A Rain Light Rain
11:46 AM 44.6°F / 7.0°C 44.6°F / 7.0°C 100% 29.93 in / 1013.4 hPa 3.0 miles / 4.8 kilometers SSE 8.1 mph / 13.0 km/h - N/A Rain Light Rain
11:58 AM 46.4°F / 8.0°C 46.4°F / 8.0°C 100% 29.95 in / 1014.0 hPa 4.0 miles / 6.4 kilometers South 13.8 mph / 22.2 km/h 19.6 mph / 31.5 km/h N/A Rain Light Rain
12:11 PM 48.2°F / 9.0°C 48.2°F / 9.0°C 100% 29.92 in / 1013.1 hPa 8.0 miles / 12.9 kilometers SSE 18.4 mph / 29.6 km/h 23.0 mph / 37.0 km/h N/A Rain Light Rain
12:16 PM 48.2°F / 9.0°C 48.2°F / 9.0°C 100% 29.92 in / 1013.1 hPa 9.0 miles / 14.5 kilometers South 17.3 mph / 27.8 km/h 25.3 mph / 40.7 km/h N/A   Overcast
12:50 PM 50.0°F / 10.0°C 48.2°F / 9.0°C 94% 29.91 in / 1012.8 hPa 8.0 miles / 12.9 kilometers South 16.1 mph / 25.9 km/h 27.6 mph / 44.4 km/h N/A Rain Light Rain
12:58 PM 49.8°F / 9.9°C 48.7°F / 9.3°C 96% 29.92 in / 1013.0 hPa 9.0 miles / 14.5 kilometers SSE 21.9 mph / 35.2 km/h 27.6 mph / 44.4 km/h 0.02 in / 0.5 cm Rain Light Rain
1:04 PM 50.0°F / 10.0°C 48.2°F / 9.0°C 94% 29.90 in / 1012.4 hPa 10.0 miles / 16.1 kilometers South 19.6 mph / 31.5 km/h 31.1 mph / 50.0 km/h N/A   Overcast
1:19 PM 50.0°F / 10.0°C 48.2°F / 9.0°C 94% 29.90 in / 1012.4 hPa 10.0 miles / 16.1 kilometers South 15.0 mph / 24.1 km/h 26.5 mph / 42.6 km/h N/A   Overcast
1:21 PM 50.0°F / 10.0°C 48.2°F / 9.0°C 94% 29.90 in / 1012.4 hPa 10.0 miles / 16.1 kilometers South 17.3 mph / 27.8 km/h 26.5 mph / 42.6 km/h N/A Rain Light Rain
1:30 PM 50.0°F / 10.0°C 50.0°F / 10.0°C 100% 29.89 in / 1012.1 hPa 10.0 miles / 16.1 kilometers SSE 19.6 mph / 31.5 km/h 26.5 mph / 42.6 km/h N/A   Overcast
1:32 PM 50.0°F / 10.0°C 50.0°F / 10.0°C 100% 29.89 in / 1012.1 hPa 10.0 miles / 16.1 kilometers South 18.4 mph / 29.6 km/h 26.5 mph / 42.6 km/h N/A Rain Light Rain
1:44 PM 50.0°F / 10.0°C 48.2°F / 9.0°C 94% 29.88 in / 1011.7 hPa 10.0 miles / 16.1 kilometers South 17.3 mph / 27.8 km/h 27.6 mph / 44.4 km/h N/A   Overcast
1:58 PM 50.7°F / 10.4°C 49.1°F / 9.5°C 94% 29.90 in / 1012.3 hPa 10.0 miles / 16.1 kilometers South 17.3 mph / 27.8 km/h 26.5 mph / 42.6 km/h 0.01 in / 0.3 cm   Overcast
2:38 PM 51.8°F / 11.0°C 48.2°F / 9.0°C 88% 29.87 in / 1011.4 hPa 10.0 miles / 16.1 kilometers South 21.9 mph / 35.2 km/h 31.1 mph / 50.0 km/h N/A   Overcast
2:43 PM 51.8°F / 11.0°C 48.2°F / 9.0°C 88% 29.87 in / 1011.4 hPa 10.0 miles / 16.1 kilometers SSE 19.6 mph / 31.5 km/h 28.8 mph / 46.3 km/h N/A   Overcast
2:44 PM 51.8°F / 11.0°C 48.2°F / 9.0°C 88% 29.87 in / 1011.4 hPa 10.0 miles / 16.1 kilometers South 17.3 mph / 27.8 km/h 28.8 mph / 46.3 km/h N/A Rain Light Rain
2:52 PM 51.8°F / 11.0°C 50.0°F / 10.0°C 94% 29.87 in / 1011.4 hPa 10.0 miles / 16.1 kilometers South 19.6 mph / 31.5 km/h 27.6 mph / 44.4 km/h N/A   Overcast
2:58 PM 51.1°F / 10.6°C 49.1°F / 9.5°C 93% 29.89 in / 1012.0 hPa 10.0 miles / 16.1 kilometers South 18.4 mph / 29.6 km/h 27.6 mph / 44.4 km/h 0.00 in / 0.0 cm   Overcast
3:58 PM 51.3°F / 10.7°C 49.3°F / 9.6°C 93% 29.89 in / 1012.0 hPa 10.0 miles / 16.1 kilometers South 18.4 mph / 29.6 km/h 27.6 mph / 44.4 km/h 0.01 in / 0.3 cm   Overcast
3:59 PM 51.8°F / 11.0°C 50.0°F / 10.0°C 94% 29.87 in / 1011.4 hPa 10.0 miles / 16.1 kilometers South 18.4 mph / 29.6 km/h 27.6 mph / 44.4 km/h N/A Rain Light Rain
4:16 PM 51.8°F / 11.0°C 50.0°F / 10.0°C 94% 29.85 in / 1010.7 hPa 2.5 miles / 4.0 kilometers South 18.4 mph / 29.6 km/h 29.9 mph / 48.2 km/h N/A   Overcast
4:21 PM 51.8°F / 11.0°C 50.0°F / 10.0°C 94% 29.85 in / 1010.7 hPa 10.0 miles / 16.1 kilometers South 20.7 mph / 33.3 km/h 26.5 mph / 42.6 km/h N/A   Overcast
4:58 PM 51.1°F / 10.6°C 49.1°F / 9.5°C 93% 29.85 in / 1010.6 hPa 10.0 miles / 16.1 kilometers South 21.9 mph / 35.2 km/h 35.7 mph / 57.4 km/h 0.01 in / 0.3 cm   Overcast
5:23 PM 51.8°F / 11.0°C 48.2°F / 9.0°C 88% 29.82 in / 1009.7 hPa 10.0 miles / 16.1 kilometers South 20.7 mph / 33.3 km/h 33.4 mph / 53.7 km/h N/A   Mostly Cloudy
5:28 PM 51.8°F / 11.0°C 48.2°F / 9.0°C 88% 29.83 in / 1010.0 hPa 10.0 miles / 16.1 kilometers South 24.2 mph / 38.9 km/h 33.4 mph / 53.7 km/h N/A   Mostly Cloudy
5:58 PM 52.0°F / 11.1°C 47.7°F / 8.7°C 85% 29.84 in / 1010.3 hPa 10.0 miles / 16.1 kilometers South 23.0 mph / 37.0 km/h 39.1 mph / 63.0 km/h N/A   Mostly Cloudy
6:18 PM 51.8°F / 11.0°C 48.2°F / 9.0°C 88% 29.82 in / 1009.7 hPa 10.0 miles / 16.1 kilometers South 20.7 mph / 33.3 km/h 34.5 mph / 55.6 km/h N/A   Overcast
6:58 PM 51.8°F / 11.0°C 48.0°F / 8.9°C 87% 29.83 in / 1009.9 hPa 10.0 miles / 16.1 kilometers South 20.7 mph / 33.3 km/h 38.0 mph / 61.1 km/h N/A   Overcast
7:13 PM 51.8°F / 11.0°C 48.2°F / 9.0°C 88% 29.81 in / 1009.4 hPa 10.0 miles / 16.1 kilometers South 26.5 mph / 42.6 km/h 31.1 mph / 50.0 km/h N/A   Overcast
7:58 PM 52.0°F / 11.1°C 47.1°F / 8.4°C 83% 29.82 in / 1009.6 hPa 10.0 miles / 16.1 kilometers South 18.4 mph / 29.6 km/h 26.5 mph / 42.6 km/h N/A   Overcast
8:03 PM 51.8°F / 11.0°C 46.4°F / 8.0°C 82% 29.81 in / 1009.4 hPa 10.0 miles / 16.1 kilometers South 18.4 mph / 29.6 km/h 28.8 mph / 46.3 km/h N/A   Overcast
8:08 PM 51.8°F / 11.0°C 46.4°F / 8.0°C 82% 29.80 in / 1009.0 hPa 10.0 miles / 16.1 kilometers South 23.0 mph / 37.0 km/h 32.2 mph / 51.9 km/h N/A   Overcast
8:23 PM 51.8°F / 11.0°C 46.4°F / 8.0°C 82% 29.80 in / 1009.0 hPa 10.0 miles / 16.1 kilometers SSE 21.9 mph / 35.2 km/h 33.4 mph / 53.7 km/h N/A   Overcast
8:38 PM 51.8°F / 11.0°C 46.4°F / 8.0°C 82% 29.80 in / 1009.0 hPa 10.0 miles / 16.1 kilometers South 19.6 mph / 31.5 km/h 28.8 mph / 46.3 km/h N/A   Overcast
8:47 PM 51.8°F / 11.0°C 48.2°F / 9.0°C 88% 29.79 in / 1008.7 hPa 10.0 miles / 16.1 kilometers SSE 18.4 mph / 29.6 km/h 31.1 mph / 50.0 km/h N/A Rain Light Rain
8:58 PM 51.4°F / 10.8°C 47.5°F / 8.6°C 86% 29.79 in / 1008.7 hPa 10.0 miles / 16.1 kilometers South 17.3 mph / 27.8 km/h 25.3 mph / 40.7 km/h 0.00 in / 0.0 cm Rain Light Rain
9:00 PM 51.8°F / 11.0°C 48.2°F / 9.0°C 88% 29.78 in / 1008.4 hPa 10.0 miles / 16.1 kilometers South 19.6 mph / 31.5 km/h 28.8 mph / 46.3 km/h N/A   Overcast
9:04 PM 51.8°F / 11.0°C 48.2°F / 9.0°C 88% 29.78 in / 1008.4 hPa 10.0 miles / 16.1 kilometers South 17.3 mph / 27.8 km/h 28.8 mph / 46.3 km/h N/A Rain Light Rain
9:40 PM 51.8°F / 11.0°C 48.2°F / 9.0°C 88% 29.77 in / 1008.0 hPa 10.0 miles / 16.1 kilometers South 20.7 mph / 33.3 km/h 28.8 mph / 46.3 km/h N/A   Overcast
9:58 PM 51.8°F / 11.0°C 46.9°F / 8.3°C 83% 29.76 in / 1007.7 hPa 10.0 miles / 16.1 kilometers South 18.4 mph / 29.6 km/h 27.6 mph / 44.4 km/h 0.02 in / 0.5 cm   Overcast
10:58 PM 53.2°F / 11.8°C 45.3°F / 7.4°C 74% 29.77 in / 1007.9 hPa 10.0 miles / 16.1 kilometers South 17.3 mph / 27.8 km/h 32.2 mph / 51.9 km/h N/A   Overcast
11:55 PM 51.8°F / 11.0°C 44.6°F / 7.0°C 76% 29.75 in / 1007.3 hPa 10.0 miles / 16.1 kilometers South 15.0 mph / 24.1 km/h 24.2 mph / 38.9 km/h N/A Rain Light Rain
11:58 PM 52.9°F / 11.6°C 45.1°F / 7.3°C 75% 29.77 in / 1007.9 hPa 10.0 miles / 16.1 kilometers South 15.0 mph / 24.1 km/h 24.2 mph / 38.9 km/h N/A Rain Light Rain
Moon Phase
Jan. 08 Jan. 11 Jan. 18 Jan. 26 Feb. 03
Sunrise:07:55 AM (PST) Moon Rise:04:33 AM (PST)1/8
Sunset:04:39 PM (PST) Moon Set:01:47 PM (PST)1/8

Copyright © 2014 The Weather Underground, Inc.